Tracking 25195 objects as of 21-Jan-2022
HD Live streaming from Space Station
objects crossing your sky now

MARISAT 1

Track MARISAT 1 now!
MARISAT 1 is classified as:


NORAD ID: 8697
Int'l Code: 1976-017A
Perigee: 36,044.9 km
Apogee: 36,147.2 km
Inclination: 9.6 °
Period: 1,451.6 minutes
Semi major axis: 42467 km
RCS: 5.8066 m2 (large)
Launch date: February 19, 1976
Source: United States (US)
Launch site: AIR FORCE EASTERN TEST RANGE (AFETR)
aabbcc
Your satellite tracking list
Your tracking list is empty




NASA's NSSDC Master Catalog

Two Line Element Set (TLE):
1 08697U 76017A   22019.94215862  .00000099  00000-0  00000-0 0  9990
2 08697   9.5699 308.6666 0012050 157.2623  59.7377  0.99202954166134
Source of the keplerian elements: AFSPC